Location: Fauquembergues
(50.6005°N, 2.0987°E)
Time: 10:51:43
(UTC+00:00)

BREEZE-M DEB (TANK) - Pass Details

Date: 14 July 2020
Orbit: 274 x 20503 km, 49.2° (Epoch: 05 August)

Event Time Altitude Azimuth Distance (km) Brightness Sun altitude
Exits shadow 01:56:28 14° 259° (W) 1,277 4.3 -13.2°
Maximum altitude 01:58:35 34° 195° (SSW) 996 3.6 -13.0°
Drops below altitude 10° 02:04:56 10° 132° (SE) 3,707 6.9 -12.5°
Sets 02:11:25 0° 127° (SE) 6,645 8.3 -12.0°
